TimeCST,TemperatureF,Dew PointF,Humidity,Sea Level PressureIn,VisibilityMPH,Wind Direction,Wind SpeedMPH,Gust SpeedMPH,PrecipitationIn,Events,Conditions,WindDirDegrees,DateUTC
12:52 AM,35.1,24.1,64,29.99,10.0,South,9.2,-,N/A,,Clear,190,2013-01-08 06:52:00
1:52 AM,36.0,24.1,62,29.98,10.0,South,12.7,-,N/A,,Clear,190,2013-01-08 07:52:00
2:52 AM,33.1,24.1,70,29.98,10.0,South,9.2,-,N/A,,Clear,180,2013-01-08 08:52:00
3:52 AM,33.1,25.0,72,29.99,10.0,South,9.2,-,N/A,,Clear,180,2013-01-08 09:52:00
4:52 AM,30.9,24.1,76,29.97,10.0,South,9.2,-,N/A,,Clear,180,2013-01-08 10:52:00
5:52 AM,30.9,25.0,79,29.96,9.0,South,12.7,-,N/A,,Clear,170,2013-01-08 11:52:00
6:52 AM,30.9,26.1,82,29.96,8.0,South,11.5,-,N/A,,Clear,170,2013-01-08 12:52:00
7:52 AM,32.0,26.1,79,29.95,7.0,South,10.4,-,N/A,,Clear,180,2013-01-08 13:52:00
8:52 AM,35.1,28.0,76,29.98,8.0,South,11.5,-,N/A,,Clear,190,2013-01-08 14:52:00
9:52 AM,39.0,28.9,67,29.99,10.0,SSW,19.6,24.2,N/A,,Clear,200,2013-01-08 15:52:00
10:52 AM,44.1,28.9,55,29.98,10.0,SSW,19.6,27.6,N/A,,Clear,210,2013-01-08 16:52:00
11:52 AM,50.0,28.9,44,29.95,10.0,SW,17.3,-,N/A,,Clear,220,2013-01-08 17:52:00
12:52 PM,53.1,28.9,40,29.95,10.0,West,13.8,-,N/A,,Clear,260,2013-01-08 18:52:00
1:52 PM,54.0,28.0,37,29.92,10.0,SW,15.0,-,N/A,,Clear,220,2013-01-08 19:52:00
2:52 PM,57.9,28.9,33,29.91,10.0,SSW,16.1,-,N/A,,Clear,200,2013-01-08 20:52:00
3:52 PM,57.0,30.0,36,29.95,10.0,South,13.8,-,N/A,,Partly Cloudy,190,2013-01-08 21:52:00
4:52 PM,55.0,30.0,38,30.01,10.0,SW,9.2,-,N/A,,Clear,220,2013-01-08 22:52:00
5:52 PM,48.0,30.0,50,30.04,10.0,NNW,10.4,-,N/A,,Clear,330,2013-01-08 23:52:00
6:52 PM,39.9,27.0,60,30.08,10.0,North,3.5,-,N/A,,Clear,350,2013-01-09 00:52:00
7:52 PM,35.1,26.1,70,30.12,10.0,Calm,Calm,-,N/A,,Clear,0,2013-01-09 01:52:00
8:52 PM,30.9,24.1,76,30.14,10.0,Calm,Calm,-,N/A,,Clear,0,2013-01-09 02:52:00
9:52 PM,28.9,23.0,78,30.17,10.0,Calm,Calm,-,N/A,,Clear,0,2013-01-09 03:52:00
10:52 PM,26.1,21.9,84,30.19,10.0,Calm,Calm,-,N/A,,Clear,0,2013-01-09 04:52:00
11:52 PM,24.1,19.9,84,30.22,10.0,Calm,Calm,-,N/A,,Clear,0,2013-01-09 05:52:00